Regional Weather Roundup
Issued by NWS

Home | Current Version | Previous Version | Graphics & Text | Print | Product List | Glossary On
Versions: 1 2 3 4 5 6 7 8 9 10 11 12 13 14 15 16 17 18 19 20 21 22 23 24 25 26 27 28 29 30 31 32 33 34 35 36 37 38 39 40 41 42 43 44 45 46 47 48 49 50
000
ASUS45 KTFX 292210
RWRMT
MONTANA REGIONAL WEATHER ROUNDUP
NATIONAL WEATHER SERVICE GREAT FALLS MT
400 PM MDT FRI MAY 29 2015

NOTE: "FAIR" INDICATES FEW OR NO CLOUDS BELOW 12000 FEET WITH NO
SIGNIFICANT WEATHER AND/OR OBSTRUCTIONS TO VISIBILITY.

MTZ001>007-043-292300-
WEST OF THE DIVIDE

CITY           SKY/WX    TMP DP  RH WIND       PRES   REMARKS
KALISPELL      PTCLDY    75  42  30 S9        30.04F
MISSOULA       CLOUDY    73  45  36 SW13      30.05F
BUTTE          MOSUNNY   66  43  43 SE10G21   30.16F
MULLAN PASS    CLOUDY    60  43  53 CALM      30.15F
DEER LODGE       N/A     70  46  43 W6        30.15F
EUREKA           N/A     73  46  38 NW14      30.03S
HAMILTON         N/A     72  43  35 W13       30.05R
LIBBY            N/A     77  50  38 CALM      30.00F
PLAINS           N/A     76  47  35 W1        30.01F
RONAN            N/A     75  48  38 SW1       30.10F
THOMPSON FALLS   N/A     76  51  41 SE2       30.04F
$$

MTZ008-052>055-292300-
SOUTHWEST MONTANA

CITY           SKY/WX    TMP DP  RH WIND       PRES   REMARKS
BOZEMAN        SUNNY     68  48  48 VRB3      30.16F
DILLON         MOSUNNY   68  41  37 VRB3      30.14F
W YELLOWSTONE  CLOUDY    61  37  41 S6G18     30.23F
THREE FORKS      N/A     67  67 100 NE5       30.13F
$$

MTZ009-010-012-014-046-048-049-054-292300-
EAST SLOPES AND CENTRAL MONTANA

CITY           SKY/WX    TMP DP  RH WIND       PRES   REMARKS
CUT BANK       MOSUNNY   58  45  62 SE16      30.16F
GREAT FALLS    MOSUNNY   67  50  54 NE13      30.13F
MALMSTROM AFB  MOSUNNY   65  51  61 E6        30.14F
HELENA         MOSUNNY   72  46  39 E15       30.10F
CONRAD           N/A     60  53  77 E8        30.17F
$$

MTZ011-013-016-021-045-047-050-051-292300-
NORTH CENTRAL MONTANA

CITY           SKY/WX    TMP DP  RH WIND       PRES   REMARKS
HAVRE          PTSUNNY   66  45  46 E8        30.18F
LEWISTOWN      MOSUNNY   62  46  55 E14       30.21F
N BAR RANCH    CLOUDY    57  43  58 S13       30.27F
CHINOOK          N/A     63  43  48 E15       30.21F
FORT BENTON      N/A     64  46  52 E13G18    30.16F
$$

MTZ017>020-022>027-061-062-292300-
NORTHEAST MONTANA

CITY           SKY/WX    TMP DP  RH WIND       PRES   REMARKS
GLASGOW        SUNNY     59  31  34 CALM      30.27F
JORDAN           N/A     60  33  36 N6        30.27F
SIDNEY         SUNNY     61  30  31 N7        30.28S
WOLF POINT     SUNNY     60  31  33 VRB7      30.29F
MALTA            N/A     63  35  35 NE6       30.21F
PLENTYWOOD       N/A     57  27  30 N9G16     30.29S
POPLAR           N/A     59  30  33 SW6       30.29F
SCOBEY           N/A     56  28  34 NE2       30.26F
$$

MTZ028>42-056>058-292300-
SOUTHCENTRAL AND SOUTHEAST MONTANA

CITY           SKY/WX    TMP DP  RH WIND       PRES   REMARKS
BAKER          SUNNY     60  33  36 MISG      30.28S
BILLINGS       MOSUNNY   58  45  62 E8        30.25F
LIVINGSTON     MOSUNNY   60  47  61 E18       30.20F
MILES CITY     SUNNY     61  30  31 NW6       30.26F
BIG TIMBER       N/A     55  46  71 E13       30.24F
EKALAKA          N/A     56  27  33 N3        30.23S
LAUREL           N/A     59  46  61 N3        30.22F
ROUNDUP          N/A     60  42  51 SE2       30.14F
$$

REGIONAL REPORTS...DAKOTAS

CITY           SKY/WX    TMP DP  RH WIND       PRES   REMARKS
WILLISTON      SUNNY     59  31  34 VRB5      30.29S
MINOT          MOSUNNY   56  33  42 N8        30.26F
DICKINSON        N/A    N/A N/A N/A MISG      30.26S
BEACH          FAIR      55  32  41 N10       30.28S
CROSBY         FAIR      54  30  40 NE5       30.30S
WATFORD CITY   FAIR      55  36  47 N10       30.27S
BISMARCK       MOSUNNY   58  36  43 N13       30.25F
GRAND FORKS    MOSUNNY   56  38  50 N20G32    30.18S
FARGO          PTSUNNY   56  42  59 N24G30    30.14S
BUFFALO SD       N/A     55  38  52 E10       30.21F
RAPID CITY     PTSUNNY   57  43  59 NE18G30   30.26S
$$

REGIONAL REPORTS...WYOMING/IDAHO/WASHINGTON

CITY           SKY/WX    TMP DP  RH WIND       PRES   REMARKS
GILLETTE       MOSUNNY   58  40  51 N8G18     30.27F
SHERIDAN       CLOUDY    53  47  79 S8        30.29S
BUFFALO WY     CLOUDY    50  44  80 N6        30.31F
CODY           SUNNY     61  50  67 NE6       30.23F
YELLOWSTONE LA   N/A     52  36  54 CALM      30.31F
IDAHO FALLS    MOSUNNY   69  47  45 VRB5      30.18F
SALMON         CLOUDY    73  43  33 NW5       30.05F
BOISE          SUNNY     85  34  16 SE12G18   30.01F
SPOKANE        PTSUNNY   79  48  33 VRB3      29.97F
$$

REGIONAL REPORTS...ALBERTA

CITY           SKY/WX    TMP DP  RH WIND       PRES   REMARKS
CALGARY        LGT RAIN  55  43  62 SE12      30.17F
LETHBRIDGE     PTSUNNY   64  46  52 SE10G22   30.13F
MEDICINE HAT   PTSUNNY   66  34  30 E6        30.17F
$$

REGIONAL REPORTS...SASKATCHEWAN

CITY           SKY/WX    TMP DP  RH WIND       PRES   REMARKS
SWIFT CURRENT  MOSUNNY   57  27  30 E7        30.27F
REGINA         MOSUNNY   55  23  28 NE7G17    30.32F
SASKATOON      PTSUNNY   55  21  26 SE12      30.36F
$$


USA.gov is the U.S. government's official web portal to all federal, state and local government web resources and services.